This is the latest recevied weather packets stored in our database for station/object KC0RPY. If no packets are shown the sender has not sent any weather packets the latest 10 day(s).
| Time | Temp. | Humidity | Pressure | Rain* | Wind** | Luminosity | Snow |
|---|---|---|---|---|---|---|---|
| 1777856313 | 24.44° C | 45% | 1008.3 hPa | 0 mm | - | 7 W/m² | - |
| 1777856010 | 25° C | 40% | 1008.3 hPa | 0 mm | - | 9 W/m² | - |
| 1777855708 | 25° C | 38% | 1007.9 hPa | 0 mm | - | 12 W/m² | - |
| 1777855405 | 25.56° C | 39% | 1008.3 hPa | 0 mm | - | 16 W/m² | - |
| 1777855101 | 25° C | 39% | 1008.7 hPa | 0 mm | - | 19 W/m² | - |
| 1777854799 | 25.56° C | 38% | 1008.3 hPa | 0 mm | - | 23 W/m² | - |
| 1777854495 | 25.56° C | 39% | 1008.7 hPa | 0 mm | - | 24 W/m² | - |
| 1777854192 | 25.56° C | 38% | 1008.7 hPa | 0 mm | - | 29 W/m² | - |
| 1777853890 | 26.11° C | 37% | 1008.3 hPa | 0 mm | - | 35 W/m² | - |
| 1777853587 | 26.11° C | 36% | 1008.3 hPa | 0 mm | - | 38 W/m² | - |
| 1777853284 | 26.11° C | 36% | 1008.7 hPa | 0 mm | - | 44 W/m² | - |
| 1777852981 | 26.11° C | 36% | 1008.7 hPa | 0 mm | - | 53 W/m² | - |
| 1777852678 | 26.11° C | 36% | 1008.7 hPa | 0 mm | - | 64 W/m² | - |
| 1777852376 | 26.11° C | 36% | 1008.7 hPa | 0 mm | - | 67 W/m² | - |
| 1777852073 | 26.11° C | 37% | 1008.7 hPa | 0 mm | - | 70 W/m² | - |
| 1777851771 | 26.67° C | 36% | 1009 hPa | 0 mm | - | 67 W/m² | - |
| 1777851468 | 26.67° C | 36% | 1008.7 hPa | 0 mm | - | 61 W/m² | - |
| 1777851164 | 26.67° C | 34% | 1009 hPa | 0 mm | - | 64 W/m² | - |
| 1777850861 | 26.67° C | 34% | 1008.7 hPa | 0 mm | - | 72 W/m² | - |
| 1777850558 | 26.67° C | 33% | 1009.4 hPa | 0 mm | - | 80 W/m² | - |
| 1777850256 | 27.22° C | 33% | 1009 hPa | 0 mm | - | 85 W/m² | - |
| 1777849953 | 27.22° C | 32% | 1009.4 hPa | 0 mm | - | 111 W/m² | - |
| 1777849649 | 27.78° C | 32% | 1009.4 hPa | 0 mm | - | 229 W/m² | - |
| 1777849346 | 27.22° C | 32% | 1009.4 hPa | 0 mm | - | 206 W/m² | - |
| 1777849044 | 27.22° C | 31% | 1009.4 hPa | 0 mm | - | 136 W/m² | - |
* Rain latest hour (hover to see other rain measurements)
** Current wind speed in m/s (hover to see current wind gust speed)